Skip Page Navigation
NASA JPL Caltech
NASA Logo - Jet Propulsion Laboratory + View the NASA Portal
+ Near-Earth Object (NEO) Program
Search JPL
JPL Home Earth Solar System Stars & Galaxies Technology
JPL Solar System Dynamics
BODIES ORBITS EPHEMERIDES TOOLS PHYSICAL DATA DISCOVERY FAQ SITE MAP
JPL Small-Body Database Browser
Search: [ help ]  
21297 (1996 VW29)
Classification: Main-belt Asteroid          SPK-ID: 2021297
Ephemeris | Orbit Diagram | Orbital Elements | Physical Parameters | Discovery Circumstances ]

[ show orbit diagram ]
Orbital Elements at Epoch 2457000.5 (2014-Dec-09.0) TDB
Reference: JPL 16 (heliocentric ecliptic J2000)
 Element Value Uncertainty (1-sigma)   Units 
e .1373846584624661 5.6189e-08  
a 2.260444899928116 1.4631e-08 AU
q 1.949894449378268 1.2385e-07 AU
i 5.153172541474546 6.1499e-06 deg
node 60.55655494742967 6.0106e-05 deg
peri 266.6018093236245 6.6331e-05 deg
M 177.5986547231073 3.0776e-05 deg
tp 2456388.112262570452
(2013-Apr-05.61226257)
0.00010305 JED
period 1241.335897607751
3.40
1.2052e-05
3.3e-08
d
yr
n .2900101420524264 2.8156e-09 deg/d
Q 2.570995350477963 1.6641e-08 AU
  Orbit Determination Parameters
   # obs. used (total)      898  
   data-arc span      6790 days (18.59 yr)  
   first obs. used      1996-07-24  
   last obs. used      2015-02-25  
   planetary ephem.      DE431  
   SB-pert. ephem.      SB431-BIG16  
   condition code      0  
   fit RMS      .53814  
   data source      ORB  
   producer      Otto Matic  
   solution date      2015-Mar-09 15:04:04  

Additional Information
 Earth MOID = .947328 AU 
 T_jup = 3.602 
[ show covariance matrix ]

Ephemeris | Orbit Diagram | Orbital Elements | Physical Parameters | Discovery Circumstances ]

Physical Parameter Table
Parameter Symbol Value Units Sigma Reference Notes
absolute magnitude H 14.7 mag n/a MPO279736  

21297 (1996 VW29)          Discovered 1996-Nov-07 by Ueda, S., Kaneda, H. at Kushiro
Reference: 20010208/Numbers.arcLast Updated: 2004-04-19

Alternate Designations
 1996 VW29 = 1998 FA83 = 2000 WQ143 
Ephemeris | Orbit Diagram | Orbital Elements | Physical Parameters | Discovery Circumstances ]
ABOUT SSD CREDITS/AWARDS PRIVACY/COPYRIGHT GLOSSARY LINKS
FirstGov 2015-Mar-27 10:17 UT
(server date/time)  
NASA Home Page
Site Manager:   Ryan S. Park
Webmaster  Alan B. Chamberlin